Location: Unspecified
(50.0760°N, 14.4380°E)
Time: 05:39:24
(UTC+00:00)

Daily predictions for brighter satellites

Satellite Brightness Start Highest point End
(mag) Time Altitude Azimuth Time Altitude Azimuth Time Altitude Azimuth
SJ 16-02 4.5 02:40:33 11° ESE 02:40:33 11° ESE 02:40:41 10° ESE
SeaSat 1 4.5 02:48:42 10° NE 02:51:13 25° ENE 02:51:13 25° ENE
ATLAS 5 CENTAUR R/B 4.3 03:00:23 16° NNE 03:00:23 16° NNE 03:02:01 10° NE
Lacrosse 5 rocket 4.0 03:06:51 20° ESE 03:06:51 20° ESE 03:08:19 10° ESE
Cosmos 1697 Rocket 3.3 03:18:38 52° E 03:18:38 52° E 03:23:19 10° SE
Cosmos 2082 Rocket 4.0 03:13:37 10° SSE 03:18:27 29° ESE 03:23:18 10° NE
USA 267 3.1 03:18:28 10° ENE 03:24:51 86° NE 03:24:51 86° NE
Cosmos 2142 Rocket 4.4 03:33:22 83° ESE 03:33:22 83° ESE 03:39:25 10° S
Cosmos 1833 Rocket 4.0 03:28:55 10° S 03:34:03 38° ESE 03:39:12 10° NE
CZ-4B R/B 3.3 03:30:55 10° NNE 03:36:03 71° NE 03:36:03 71° NE
Meteor 1-25 Rocket 4.3 03:38:52 81° ENE 03:38:52 81° ENE 03:44:32 10° NNE
Cosmos 2360 Rocket 4.4 03:50:07 12° N 03:53:10 18° NE 03:56:58 10° ENE
IDEFIX/ARIANE 42P 4.1 03:48:31 10° NNE 03:53:18 35° E 03:58:04 10° SSE
SKYMED 2 4.1 03:49:02 10° SSE 03:52:49 58° ESE 03:52:49 58° ESE
Cosmos 2279 Rocket 3.9 03:48:49 18° N 03:53:44 83° E 03:59:58 10° S
Cosmos 1980 Rocket 2.4 03:54:29 46° N 03:56:08 67° ENE 04:01:47 10° SE
Meteor 2-4 Rocket 4.1 03:58:06 19° N 04:01:58 60° ENE 04:07:21 10° SSE
USA 234 3.7 03:56:38 10° SSE 04:02:47 42° SW 04:02:54 42° SW
Cosmos 44 4.0 04:09:24 20° S 04:12:02 44° ESE 04:16:13 10° NE
Meteor 1-19 Rocket 4.2 04:08:51 26° NNW 04:12:23 83° W 04:18:18 10° S
SJ 16-02 2.2 04:17:37 36° SSW 04:17:37 36° SSW 04:20:27 10° S
Okean-O 3.0 04:12:13 10° NNE 04:16:39 65° ESE 04:21:03 10° S
Cosmos 2344 4.5 04:12:42 27° NW 04:19:23 81° SW 04:33:23 10° SSE
Cosmos 292 Rocket 3.9 04:14:39 10° SSW 04:19:24 74° ESE 04:24:10 10° NNE
Okean 2 Rocket 3.0 04:15:19 10° SSW 04:19:50 82° W 04:24:24 10° N
Cosmos 1125 Rocket 4.0 04:24:22 41° SW 04:24:22 41° SW 04:28:30 10° S
Cosmos 2360 4.1 04:21:55 36° NNW 04:24:22 86° WSW 04:30:06 10° SSE
DMSP B5D1-3 4.5 04:21:26 10° SSE 04:26:36 87° ENE 04:30:43 17° NNW
SL-16 R/B 3.0 04:24:45 18° NNW 04:28:50 47° NE 04:34:17 10° SE
RESURS DK-1 2.2 04:29:23 62° NNW 04:30:02 90° WNW 04:34:11 10° SSE
SeaSat 1 2.6 04:26:06 10° NNE 04:30:50 47° NW 04:31:02 46° WNW
Cosmos 1536 Rocket 3.4 04:30:45 30° N 04:32:53 89° W 04:37:13 10° S
Cosmos 1300 Rocket 4.5 04:30:23 10° SSE 04:34:32 49° E 04:38:43 10° NNE
Meteor 1-20 Rocket 4.5 04:34:45 41° W 04:35:10 42° WNW 04:40:26 10° N
Thor Agena Rocket 3.9 04:32:28 10° SSE 04:37:27 64° ENE 04:42:29 10° N
Cosmos 2322 Rocket 2.9 04:33:58 17° NNW 04:38:18 52° NE 04:43:50 10° SE
MSX 4.5 04:34:01 10° NNE 04:39:42 57° E 04:45:20 10° S
IRS-1C Rocket 4.4 04:35:21 10° N 04:40:15 40° WNW 04:41:01 38° W
Cosmos 841 Rocket 4.1 04:41:19 35° NW 04:41:19 35° NW 04:45:56 10° N
COSMO-SKYMED 1 2.8 04:37:18 10° S 04:41:24 44° W 04:41:24 44° W
ERBS 3.4 04:42:32 31° N 04:42:32 31° N 04:45:05 10° NE
Lacrosse 5 rocket 2.5 04:42:33 31° SW 04:42:45 31° SW 04:46:46 10° SSE
Cosmos 1515 4.4 04:40:39 12° N 04:44:06 52° ENE 04:47:50 10° SSE
ATLAS 5 CENTAUR R/B 3.7 04:41:56 17° NNW 04:44:09 22° N 04:48:38 10° ENE
Okean 2 4.2 04:43:04 10° N 04:47:04 50° ENE 04:51:03 10° SSE
GEOS 3 Rocket 4.4 04:41:51 10° NE 04:47:10 54° SE 04:52:25 10° SSW
Cosmos 1025 Rocket 3.7 04:45:09 10° N 04:49:22 54° ENE 04:53:33 10° SSE
Nadezhda 4 Rocket 3.9 04:45:09 10° S 04:51:19 88° E 04:57:29 10° N
Meteor 1-4 Rocket 4.5 04:50:28 10° SSE 04:53:54 33° E 04:57:21 10° NNE
Meteor 2-20 4.3 04:48:13 10° SSW 04:54:18 74° WNW 05:00:25 10° N
Meteor 1-23 Rocket 4.1 04:52:35 10° NNW 04:58:12 75° W 05:03:44 10° S
Okean 1 Rocket 3.7 04:55:34 10° S 04:59:50 57° E 05:04:11 10° NNE
Cosmos 1697 Rocket 3.5 05:00:25 26° W 05:01:25 28° WSW 05:06:04 10° SSW
Cosmos 2082 Rocket 2.3 04:56:38 10° SW 05:02:15 56° NW 05:07:54 10° NNE
Cosmos 540 Rocket 3.9 04:59:21 17° WSW 05:02:53 39° WNW 05:07:46 10° NNE
Celestis-02/Orion 38 4.5 04:58:25 10° SSE 05:03:28 72° WSW 05:07:23 17° NW
Cosmos 44 Rocket 3.1 04:59:17 10° SW 05:03:59 81° NW 05:08:46 10° NE
CZ-4C R/B 3.6 05:01:12 10° S 05:06:05 40° ESE 05:11:40 10° NE
USA 267 3.5 05:01:31 10° ENE 05:07:48 53° N 05:12:13 20° WNW
Cosmos 1184 Rocket 3.8 05:06:26 10° N 05:09:40 47° ENE 05:12:53 10° SSE
COSMOS 2487 3.0 05:09:22 29° W 05:10:25 36° WNW 05:13:44 10° N
Cosmos 2333 Rocket 4.3 05:09:50 10° N 05:13:55 19° NE 05:17:59 10° E
CZ-2C R/B 2.3 05:08:58 10° N 05:13:56 66° WNW 05:18:41 10° SSW
Cosmos 1437 Rocket 2.7 05:11:34 10° SSW 05:15:30 62° WNW 05:19:24 10° N
CZ-4B R/B 4.4 05:12:22 10° N 05:16:34 22° NW 05:17:56 20° WNW
COSMOS 2428 4.4 05:12:11 10° NNW 05:17:02 27° NE 05:21:53 10° E
Cosmos 1833 Rocket 3.0 05:12:35 10° WSW 05:17:56 44° NW 05:23:19 10° NNE
Cosmos 1975 4.3 05:17:58 10° SSE 05:21:42 40° E 05:25:27 10° NNE
Cosmos 1066 Rocket 4.2 05:21:05 10° N 05:26:28 78° ENE 05:31:50 10° SSE
Cosmos 1092 Rocket 3.9 05:20:57 10° SSW 05:27:05 74° W 05:33:15 10° N
Meteor 1-11 Rocket 4.2 05:27:20 10° SW 05:32:55 41° WNW 05:38:27 10° N
IDEFIX/ARIANE 42P 3.0 05:28:09 10° N 05:32:57 39° WNW 05:37:44 10° SW
SMAP 3.2 05:31:31 10° NNE 05:36:13 81° ESE 05:40:52 10° SSW
Okean 1-7 Rocket 3.6 05:33:03 10° NNW 05:37:32 67° W 05:42:01 10° S
Cosmos 2360 Rocket 2.6 05:32:40 10° NNW 05:38:20 64° ENE 05:43:59 10° SE
Cosmos 1980 Rocket 3.3 05:36:17 14° WNW 05:39:39 24° WSW 05:44:04 10° SSW
CORIOLIS 4.5 05:37:14 10° NNE 05:42:37 72° ESE 05:47:57 10° S
Cosmos 2195 Rocket 4.5 05:37:05 10° SSW 05:43:25 78° W 05:49:44 10° N
Cosmos 1553 Rocket 4.1 05:38:10 10° N 05:44:32 84° E 05:50:45 10° S
ALOS 4.2 05:40:30 10° NNE 05:44:45 33° E 05:48:58 10° SSE
Cosmos 1536 3.8 05:41:31 10° SW 05:44:56 26° WNW 05:48:22 10° NNW
IRAS Rocket 4.3 05:39:40 10° NNE 05:45:14 86° ESE 05:50:47 10° SSW
Cosmos 2026 Rocket 4.0 05:41:02 10° SSW 05:47:17 82° W 05:53:41 10° N
Cosmos 1500 3.2 05:45:58 10° SSW 05:49:46 57° WNW 05:53:36 10° N
Cosmos 2219 Rocket 3.7 05:46:04 10° NNW 05:51:02 30° NE 05:56:00 10° ESE
Okean-O 4.0 05:49:38 10° NNW 05:52:41 18° WNW 05:55:44 10° WSW
Cosmos 44 3.7 05:49:23 10° WSW 05:53:21 33° NW 05:57:25 10° NNE
Ariane Rocket 2.9 05:50:56 10° NNE 05:56:00 76° WNW 06:01:04 10° SSW
Cosmos 2237 Rocket 4.0 05:54:48 10° NNW 05:59:16 23° NE 06:03:41 10° E
Aureole 2 Rocket 4.3 05:57:05 10° N 06:00:13 26° NE 06:03:08 10° ESE
Cosmos 1455 Rocket 3.8 05:57:18 10° S 06:01:41 60° E 06:06:06 10° NNE
AQUARIUS 4.2 05:58:55 10° N 06:03:21 58° WNW 06:07:45 10° SSW
Cosmos 1544 Rocket 4.0 06:00:46 10° S 06:05:11 70° E 06:09:39 10° NNE
IRS-1A Rocket 4.5 06:01:14 10° NNE 06:06:47 79° ESE 06:12:20 10° SSW
SeaSat 1 4.2 06:04:58 10° N 06:07:23 14° NNW 06:09:48 10° WNW
RESURS DK-1 4.4 06:06:08 10° W 06:07:24 11° WSW 06:08:40 10° WSW
Cosmos 1624 Rocket 4.4 06:02:53 10° NNW 06:08:14 71° ENE 06:13:34 10° SSE
CZ-4 R/B 1.5 06:04:43 10° N 06:08:47 60° WNW 06:12:54 10° SSW
Cosmos 389 Rocket 2.9 06:05:35 10° S 06:09:11 69° E 06:12:48 10° NNE
MONITOR-E 4.3 06:08:24 10° NNE 06:11:29 80° ESE 06:14:32 10° S
CSL-04 Debris 4.2 06:06:53 10° N 06:12:13 59° WNW 06:17:34 10° SSW
SL-16 R/B 2.9 06:07:42 10° NW 06:12:50 35° WSW 06:17:55 10° S
deb Kosmos-1763 4.1 06:10:06 10° SW 06:13:49 59° WNW 06:17:32 10° NNE
Cosmos 1680 Rocket 3.6 06:12:03 10° SSW 06:17:15 84° ESE 06:22:31 10° NNE
